Theta_e
299 299 300 299 298 299 301 301 301 299 298 299 299 298 299 299 297 296 296 294 292 291 289 289 288 288 287 287 286 285 285 285 284 283 283 283 284 284 284 285 285 286 288 290
299 300 299 299 298 299 299 300 300 299 298 298 298 298 298 298 297 295 294 294 292 290 286 285 286 286 286 285 285 284 284 283 283 282 282 282 283 283 283 284 285 286 287 289
299 300 299 301 301 302 301 301 301 301 298 296 295 298 296 297 296 295 293 292 290 290 287 285 285 285 285 284 284 283 283 282 282 281 281 282 282 283 283 284 284 285 287 287
299 299 301 301 301 300 301 299 300 300 296 300 295 302 298 298 296 296 295 293 290 287 285 285 285 284 284 283 283 282 282 281 281 281 280 281 281 282 282 282 283 284 285 286
301 300 301 300 301 298 299 297 298 298 296 292 298 296 299 296 300 298 295 293 291 287 284 285 283 283 283 282 282 281 280 280 280 280 280 280 280 281 281 282 283 284 284 285
298 297 298 298 297 298 297 298 299 294 295 295 295 299 300 298 294 297 295 292 289 287 285 285 283 282 282 281 281 280 279 279 279 279 279 279 279 280 281 281 282 283 283 284
302 300 298 299 299 298 299 303 307 302 294 302 295 298 301 295 291 291 291 290 285 284 284 284 282 281 281 280 280 279 279 279 279 279 279 279 279 278 279 280 281 282 282 283
303 301 298 298 296 298 301 301 308 310 299 297 297 298 306 293 289 284 282 281 284 285 284 283 282 280 279 279 278 278 278 278 278 278 278 278 279 278 278 279 279 280 280 281
294 299 296 297 297 298 300 302 298 299 292 299 302 301 295 295 290 287 286 288 288 285 283 281 280 279 278 278 278 277 277 277 278 278 278 278 278 278 279 279 279 279 280 281
297 297 299 297 296 296 299 298 301 299 305 303 305 298 301 292 291 290 287 288 286 283 282 280 279 278 277 277 277 277 277 277 278 278 278 278 278 279 279 279 279 280 281 282
297 296 297 297 298 299 298 301 299 298 297 305 301 303 291 289 284 288 287 288 284 282 280 278 277 276 276 277 277 277 277 278 278 278 278 278 278 279 279 279 280 280 281 281
296 296 293 295 294 296 297 299 300 304 301 290 291 299 284 282 276 276 284 287 283 281 278 277 275 274 275 276 276 277 277 278 278 278 278 278 278 279 279 279 280 280 281 282
296 299 295 296 297 295 298 296 294 292 289 293 296 299 280 274 281 283 284 284 281 281 278 274 271 271 274 275 276 277 277 278 278 278 278 278 278 278 279 279 280 280 280 281
299 297 294 299 304 297 299 296 294 296 292 287 289 291 296 291 291 291 289 282 277 276 274 271 270 270 274 275 276 277 278 277 278 278 278 278 278 278 278 279 280 280 280 280
297 292 289 293 297 300 299 301 296 295 291 301 289 284 293 293 292 288 277 277 280 279 276 273 269 269 273 276 277 278 278 278 278 278 278 278 278 278 279 279 279 280 280 280
295 292 290 292 293 293 296 299 298 296 295 293 283 295 291 282 273 278 283 282 281 279 276 273 269 269 272 276 278 278 278 278 278 278 278 278 278 279 279 279 279 280 280 280
294 291 289 291 291 296 298 291 287 284 278 285 290 290 277 288 289 282 283 277 280 279 276 273 272 272 276 278 278 279 279 278 279 279 279 279 279 279 279 279 280 280 280 281
292 291 290 290 289 303 291 276 280 283 282 281 283 286 288 287 285 279 277 275 279 276 274 274 273 276 278 279 279 279 279 279 278 279 279 280 280 280 279 278 278 278 279 279
293 293 289 289 285 296 295 285 286 289 290 281 284 286 284 280 274 283 271 267 272 273 273 276 280 280 280 280 280 279 280 279 278 278 278 278 279 279 279 278 278 278 278 278
294 291 291 286 292 295 294 288 282 281 291 284 278 283 279 285 292 288 277 271 278 276 277 278 280 279 280 281 280 279 280 279 279 279 279 278 278 278 278 278 278 278 278 278
286 287 287 286 291 292 290 288 285 290 294 284 277 281 280 287 287 288 285 283 277 278 279 280 279 279 282 282 280 280 280 280 280 279 279 278 279 278 278 278 278 278 278 278
287 287 286 285 288 294 290 290 298 294 286 284 281 280 282 283 283 282 284 284 282 280 280 280 278 279 282 281 280 280 280 283 280 279 278 278 278 278 278 278 278 278 278 278
294 291 297 290 291 289 286 294 289 285 289 287 288 287 286 288 287 287 286 286 284 284 283 282 280 280 281 281 280 279 284 283 281 279 279 278 278 278 278 278 278 277 277 277
290 293 296 293 292 291 289 286 287 286 288 287 287 286 286 286 287 287 286 286 284 284 284 284 281 278 279 282 281 282 283 284 281 279 279 279 278 278 278 278 277 277 278 278
291 293 294 293 291 289 291 289 286 286 284 284 284 284 283 284 284 284 284 284 283 283 283 283 281 279 280 282 283 283 283 283 281 279 279 279 278 278 278 278 278 278 278 277
290 291 292 291 288 288 288 286 284 283 283 282 282 281 282 282 282 281 281 281 281 280 280 279 280 280 280 281 281 282 283 282 281 279 278 278 279 278 278 278 278 278 278 278
Wind_Speed
3 2 5 6 6 1 1 3 5 4 1 2 8 8 17 19 8 11 9 6 7 6 3 10 12 9 7 6 6 8 11 14 17 18 18 14 14 16 16 17 19 17 17 16
3 5 3 3 3 4 3 5 6 5 1 1 6 16 19 16 8 5 4 3 4 2 3 6 10 8 6 5 6 8 11 14 16 17 17 14 17 15 19 18 14 14 14 15
4 1 3 3 3 3 4 4 4 5 5 1 6 8 6 1 2 2 2 0 1 1 5 4 7 5 3 4 6 9 12 15 17 17 16 15 15 13 13 14 15 15 14 16
4 3 1 1 3 4 2 2 1 3 4 4 3 6 6 3 6 3 3 3 0 2 3 3 3 2 4 4 7 11 13 16 16 15 15 13 14 17 18 19 19 19 16 15
3 1 2 0 2 3 4 2 2 2 2 4 1 2 7 3 2 3 5 4 2 2 3 3 2 3 2 6 9 11 13 15 14 15 14 12 14 15 17 18 20 19 18 17
5 2 1 2 2 1 3 1 2 3 2 2 2 3 5 3 4 1 2 3 4 2 3 1 2 2 6 7 10 12 14 14 15 15 15 14 14 15 17 17 19 19 18 18
4 1 1 2 1 2 3 4 3 3 2 5 0 2 8 4 3 4 5 7 5 5 4 4 3 5 7 8 10 12 13 16 17 16 16 16 15 14 15 17 17 18 18 18
3 5 1 4 2 4 1 3 3 4 3 4 1 5 3 4 3 5 6 8 7 6 5 5 4 4 6 7 11 14 15 16 17 18 18 17 15 14 14 15 17 19 19 20
2 5 2 3 0 1 3 2 2 3 2 1 3 5 6 2 4 4 5 6 7 6 5 5 5 5 7 10 11 12 13 14 16 18 18 18 15 16 17 18 19 19 19 18
2 4 1 1 0 2 0 4 2 1 2 4 3 4 4 3 3 5 6 7 7 5 5 4 4 5 8 10 12 12 12 13 14 15 15 16 16 15 15 15 17 17 18 18
3 3 3 2 4 4 3 2 1 1 1 2 3 5 6 6 5 7 8 9 7 7 5 4 4 6 9 10 10 11 11 12 13 14 14 14 15 16 14 15 14 15 17 17
2 3 3 8 1 2 2 2 3 2 3 1 0 6 3 5 4 4 11 10 7 4 5 4 4 8 10 10 10 10 10 11 12 13 13 13 14 15 15 15 15 13 14 14
3 2 3 4 0 1 2 3 3 2 2 5 3 5 1 2 6 7 9 8 6 6 5 4 5 6 8 9 9 9 10 11 11 11 12 13 12 13 15 15 15 14 15 13
3 3 6 5 1 2 3 4 4 3 2 3 6 9 13 11 14 16 9 6 7 7 7 5 5 5 7 7 8 8 9 9 10 11 11 12 12 13 14 13 13 12 11 11
3 4 2 7 10 9 9 9 8 8 5 6 4 6 14 15 14 10 7 8 8 7 6 5 4 4 7 7 6 6 7 9 10 11 11 11 11 10 10 10 11 11 10 10
1 3 1 5 2 3 4 9 11 12 6 9 3 20 11 7 6 8 10 9 9 8 7 5 5 6 8 6 5 5 6 7 8 9 10 10 10 9 9 9 9 9 10 10
3 1 3 5 2 5 3 4 3 2 2 5 4 8 5 13 13 7 10 7 10 9 7 6 6 8 9 7 4 4 5 6 7 7 7 8 9 10 10 10 10 10 10 12
3 3 1 4 6 1 5 1 3 5 5 7 8 9 9 13 11 11 7 5 9 6 6 6 7 10 10 8 6 3 3 3 4 5 5 6 7 7 7 8 9 10 11 11
4 2 1 1 1 6 2 3 5 5 4 6 6 7 8 8 3 5 5 4 4 6 6 9 11 11 11 11 9 7 6 5 5 4 3 3 4 4 5 6 7 7 6 8
4 3 3 2 1 3 5 2 4 2 2 5 5 7 4 8 6 4 4 4 8 11 15 13 11 13 14 15 12 10 9 8 7 5 4 3 3 3 3 3 5 6 6 6
2 1 4 3 3 6 4 2 5 4 4 2 4 5 3 2 5 10 15 9 8 13 14 14 14 19 20 15 15 16 14 16 9 8 8 7 6 5 4 4 4 4 4 4
6 6 3 2 1 5 4 3 1 3 3 3 3 4 6 8 12 9 11 11 9 9 13 14 16 22 21 19 19 21 22 17 12 12 12 11 10 9 8 8 8 8 7 6
2 4 1 7 5 4 5 6 2 1 4 5 6 7 8 13 13 12 11 11 8 14 15 13 19 22 23 23 25 25 29 20 16 16 16 15 14 13 13 12 11 10 10 10
2 2 2 3 3 4 7 1 2 3 5 9 8 10 11 14 15 15 11 11 10 15 15 18 17 20 23 27 30 35 29 22 20 21 20 18 19 18 17 16 15 14 14 13
2 1 3 4 4 8 2 7 9 7 8 11 11 10 12 12 13 12 12 12 12 17 19 19 18 20 25 29 32 34 33 29 26 24 24 23 22 22 21 20 20 19 19 16
3 4 3 3 3 2 7 6 12 13 13 13 14 14 13 11 13 13 13 17 17 18 22 21 21 22 27 28 31 31 31 32 32 31 30 29 26 25 24 23 24 22 22 19
Wind_Direction
9 48 227 228 223 294 286 236 259 259 218 267 247 269 276 276 235 257 255 255 261 268 305 193 181 182 196 231 266 294 308 317 321 326 329 323 315 310 312 314 315 317 318 317
21 233 256 254 213 237 266 275 274 275 96 242 306 288 270 277 268 222 246 238 274 168 100 137 157 169 199 242 278 301 311 316 323 326 321 310 305 304 308 317 314 311 307 299
184 183 322 188 220 207 225 213 246 259 323 164 314 287 316 277 278 243 238 232 358 300 181 174 175 198 254 283 295 308 315 319 323 324 317 312 311 307 316 316 313 318 310 304
226 294 332 228 253 150 281 341 302 343 37 269 18 288 302 318 302 268 267 218 73 106 105 141 172 249 286 291 310 312 318 321 322 321 317 313 310 308 310 310 311 312 308 305
273 28 49 213 248 158 227 17 67 90 86 19 312 51 273 335 81 52 26 26 282 190 171 192 264 285 292 301 314 322 320 319 324 322 317 311 306 302 304 305 305 308 306 305
259 297 10 202 55 68 156 44 105 62 109 320 217 131 283 236 199 12 10 5 7 295 229 243 324 271 287 319 323 324 327 323 324 325 321 317 302 303 301 299 301 303 304 304
329 70 118 20 154 45 36 57 311 325 10 230 220 83 254 275 240 221 282 313 324 323 309 294 290 303 322 323 325 328 323 325 330 327 321 315 311 303 295 300 300 299 298 300
20 318 50 1 127 164 79 163 215 253 307 297 84 236 234 212 248 266 274 274 299 303 296 295 300 304 313 322 328 329 332 328 330 327 322 321 318 307 300 295 291 290 289 289
96 275 81 58 62 77 158 192 74 119 171 265 248 270 300 339 326 355 326 314 296 309 324 307 301 312 324 327 327 332 328 329 331 328 329 327 325 315 303 301 298 293 295 295
223 317 133 157 183 42 103 138 145 140 236 260 290 281 241 311 293 303 294 306 311 318 323 306 301 326 329 328 330 333 334 331 333 333 335 330 324 312 307 308 307 305 302 298
143 119 290 95 200 182 148 197 158 50 271 241 303 275 210 209 220 259 290 305 304 307 296 291 302 320 327 329 333 335 339 339 341 341 341 337 330 322 321 317 317 314 310 311
214 165 266 232 16 40 87 173 174 214 196 216 193 275 197 224 234 238 285 299 296 271 284 285 305 323 329 329 334 341 344 347 347 346 346 345 340 331 331 334 330 323 314 317
189 232 320 324 139 67 208 178 129 100 56 208 152 264 339 285 294 265 273 305 305 302 298 292 313 315 312 322 334 340 349 350 352 352 353 355 351 345 347 343 338 337 337 334
169 224 194 216 194 158 201 197 191 193 139 195 233 290 301 324 328 320 318 297 300 288 281 286 293 285 294 319 332 343 354 354 356 355 356 358 354 353 355 352 347 345 341 340
165 233 195 259 260 243 251 242 191 198 213 234 271 246 291 307 298 287 287 290 305 312 312 278 259 269 290 314 332 351 354 359 359 355 357 359 354 357 359 359 355 352 357 6
181 271 31 279 307 148 253 249 229 220 234 260 342 286 278 281 284 289 282 286 289 293 290 272 257 262 266 277 312 337 347 3 2 359 3 1 2 6 13 15 18 8 20 34
175 191 29 271 286 274 297 239 182 229 284 155 202 237 340 310 314 304 310 295 281 281 277 265 241 233 240 247 262 309 339 359 4 9 12 12 16 19 25 31 37 44 44 52
154 147 131 272 342 17 243 353 152 205 228 229 286 280 282 276 284 282 261 258 301 279 267 251 230 231 229 229 236 244 287 322 342 357 11 21 25 27 27 28 38 39 34 31
170 128 293 115 227 294 338 215 168 180 257 202 222 278 280 285 306 290 220 216 254 259 258 264 246 220 222 224 232 238 243 265 285 299 323 348 350 355 1 7 11 17 31 38
181 128 127 67 151 211 235 267 161 135 273 221 191 270 286 332 13 268 285 271 293 283 263 264 247 225 221 225 225 236 242 240 245 246 260 274 289 301 325 348 358 359 4 15
107 63 175 218 264 288 280 157 160 94 258 279 200 253 253 273 223 287 311 306 278 284 282 257 244 234 235 227 222 232 239 240 238 243 238 244 254 260 260 280 305 315 323 335
166 149 195 97 129 278 198 148 300 247 312 250 252 255 261 261 283 279 289 291 300 294 296 252 241 243 242 233 229 234 237 240 240 238 238 242 247 251 260 277 289 289 285 283
231 186 189 182 215 221 198 235 10 180 276 299 304 300 284 301 299 301 298 306 302 300 301 279 242 247 247 236 230 237 244 241 242 243 245 245 247 249 255 262 267 272 276 278
252 183 220 13 292 260 290 99 153 295 311 318 312 315 315 310 310 307 306 309 308 309 300 303 261 242 247 243 236 237 243 244 244 245 247 250 251 251 253 257 262 265 264 268
182 128 199 270 304 327 321 27 7 347 329 329 318 318 314 313 312 311 312 313 311 311 313 307 272 252 252 255 246 243 242 239 239 242 246 249 252 256 260 260 263 266 271 273
188 184 165 230 174 222 276 328 336 342 336 331 327 319 319 315 317 320 311 309 309 312 314 313 296 276 270 267 261 253 246 241 239 241 245 246 248 252 256 261 269 266 272 275